KLM1163 EHAM-ENBR

Flight info

Callsign KLM1163
Flight time N/A
Altitude 38000
Route BERGI M90 LONAM/N0446F370 DCT LARGA DCT PENUN/N0447F380 DCT ALUVA
Aircraft B737/M-SDE2E3FGHIRWXY/LB1

Departure

Time N/A
Airport Amsterdam Airport Schiphol (EHAM)

Arrival

Time 2026-04-27 14:36
Airport Bergen Airport, Flesland (ENBR)
Time Latitude Longitude Altitude Speed Heading
2026-04-27 14:14 58.52237 4.91631 41401 ft 449 kts
2026-04-27 14:14 58.58495 4.92002 41405 ft 449 kts
2026-04-27 14:15 58.64757 4.92374 41177 ft 452 kts
2026-04-27 14:15 58.67898 4.92561 40717 ft 448 kts
2026-04-27 14:15 58.71022 4.92748 39995 ft 448 kts
2026-04-27 14:15 58.74137 4.92934 39360 ft 447 kts
2026-04-27 14:16 58.77253 4.93121 38571 ft 448 kts
2026-04-27 14:16 58.80368 4.93308 37806 ft 447 kts
2026-04-27 14:16 58.83437 4.93492 37077 ft 446 kts
2026-04-27 14:16 58.86541 4.93679 36344 ft 445 kts
2026-04-27 14:17 58.89639 4.93866 35532 ft 446 kts
2026-04-27 14:17 58.92750 4.94055 34692 ft 448 kts
2026-04-27 14:17 58.95874 4.94244 33666 ft 450 kts
2026-04-27 14:17 58.99017 4.94435 32693 ft 451 kts
2026-04-27 14:18 59.02155 4.94626 31692 ft 451 kts
2026-04-27 14:18 59.05305 4.94818 30700 ft 453 kts
2026-04-27 14:18 59.08403 4.95007 29921 ft 447 kts
2026-04-27 14:18 59.11489 4.95195 29127 ft 440 kts
2026-04-27 14:19 59.13548 4.95320 28633 ft 435 kts
2026-04-27 14:19 59.16510 4.95501 27911 ft 428 kts
2026-04-27 14:19 59.19478 4.95684 27190 ft 422 kts
2026-04-27 14:19 59.22403 4.95864 26448 ft 417 kts
2026-04-27 14:20 59.25285 4.96042 25758 ft 412 kts
2026-04-27 14:20 59.28145 4.96220 25060 ft 407 kts
2026-04-27 14:20 59.30968 4.96395 24366 ft 403 kts
2026-04-27 14:20 59.33724 4.96566 23634 ft 400 kts
2026-04-27 14:21 59.36490 4.96737 22855 ft 396 kts
2026-04-27 14:21 59.39234 4.96899 22153 ft 390 kts
2026-04-27 14:21 59.41949 4.96727 21339 ft 388 kts 356°
2026-04-27 14:21 59.44628 4.96257 20635 ft 384 kts 354°
2026-04-27 14:22 59.47268 4.95729 19944 ft 379 kts 354°
2026-04-27 14:22 59.49856 4.95231 19288 ft 375 kts 354°
2026-04-27 14:22 59.52439 4.94770 18621 ft 371 kts 355°
2026-04-27 14:22 59.54995 4.94341 17886 ft 367 kts 355°
2026-04-27 14:23 59.57519 4.94007 17140 ft 358 kts
2026-04-27 14:23 59.59986 4.94560 16008 ft 356 kts 12°
2026-04-27 14:23 59.62397 4.95625 14918 ft 354 kts 13°
2026-04-27 14:23 59.64791 4.96719 13821 ft 350 kts 13°
2026-04-27 14:24 59.67150 4.97799 12755 ft 344 kts 13°
2026-04-27 14:24 59.69432 4.98833 12178 ft 328 kts 13°
2026-04-27 14:24 59.71580 4.99798 11887 ft 305 kts 13°
2026-04-27 14:24 59.73562 5.00683 11599 ft 286 kts 12°
2026-04-27 14:25 59.75473 5.01533 11216 ft 274 kts 12°
2026-04-27 14:25 59.77313 5.02351 10748 ft 267 kts 12°
2026-04-27 14:25 59.79126 5.03156 10180 ft 265 kts 12°
2026-04-27 14:25 59.80917 5.03954 9591 ft 262 kts 13°
2026-04-27 14:26 59.82554 5.05468 8979 ft 262 kts 40°
2026-04-27 14:26 59.83741 5.08070 8613 ft 253 kts 50°
2026-04-27 14:26 59.84804 5.10796 8290 ft 244 kts 51°
2026-04-27 14:26 59.85812 5.13428 8056 ft 238 kts 51°
2026-04-27 14:27 59.86827 5.16087 7772 ft 247 kts 51°
2026-04-27 14:27 59.87908 5.18918 7300 ft 259 kts 51°
2026-04-27 14:27 59.88992 5.21752 7012 ft 255 kts 51°
2026-04-27 14:27 59.90043 5.24500 6830 ft 248 kts 51°
2026-04-27 14:28 59.91168 5.27023 6646 ft 239 kts 36°
2026-04-27 14:28 59.92594 5.28584 6521 ft 232 kts 24°
2026-04-27 14:28 59.94087 5.29854 6332 ft 235 kts 22°
2026-04-27 14:28 59.95623 5.31120 6138 ft 243 kts 22°
2026-04-27 14:29 59.97255 5.32219 5887 ft 252 kts
2026-04-27 14:29 59.98987 5.31953 5674 ft 246 kts 351°
2026-04-27 14:29 60.00641 5.31423 5412 ft 242 kts 352°
2026-04-27 14:29 60.02292 5.30886 5109 ft 238 kts 351°
2026-04-27 14:30 60.03968 5.30329 4628 ft 244 kts 351°
2026-04-27 14:30 60.05646 5.29764 4268 ft 244 kts 351°
2026-04-27 14:30 60.07288 5.29213 3986 ft 234 kts 351°
2026-04-27 14:30 60.08843 5.28692 3713 ft 223 kts 351°
2026-04-27 14:31 60.10305 5.28203 3446 ft 203 kts 350°
2026-04-27 14:31 60.11623 5.27761 3226 ft 181 kts 350°
2026-04-27 14:31 60.12807 5.27365 3035 ft 162 kts 350°
2026-04-27 14:31 60.13884 5.27004 2998 ft 155 kts 349°
2026-04-27 14:32 60.14928 5.26655 2840 ft 146 kts 350°
2026-04-27 14:32 60.15907 5.26331 2587 ft 138 kts 348°
2026-04-27 14:32 60.16824 5.25938 2372 ft 134 kts 337°
2026-04-27 14:32 60.17644 5.25084 2062 ft 131 kts 327°
2026-04-27 14:33 60.18422 5.24186 1843 ft 127 kts 327°
2026-04-27 14:33 60.19222 5.23442 1689 ft 129 kts 337°
2026-04-27 14:33 60.20110 5.23109 1514 ft 131 kts 358°
2026-04-27 14:33 60.21017 5.23346 1425 ft 132 kts
2026-04-27 14:34 60.21907 5.23880 1325 ft 134 kts 14°
2026-04-27 14:34 60.22792 5.24346 1211 ft 129 kts 352°
2026-04-27 14:34 60.23651 5.23932 1084 ft 135 kts 338°
2026-04-27 14:34 60.24541 5.23400 901 ft 127 kts 343°
2026-04-27 14:35 60.25406 5.23145 704 ft 125 kts 348°
2026-04-27 14:35 60.26243 5.22882 580 ft 115 kts 345°
2026-04-27 14:35 60.27014 5.22624 429 ft 112 kts 346°
2026-04-27 14:35 60.27800 5.22343 301 ft 117 kts 344°
2026-04-27 14:36 60.28605 5.22066 164 ft 112 kts 349°
2026-04-27 14:36 60.29231 5.21851 157 ft 34 kts 350°
2026-04-27 14:36 60.29373 5.21864 154 ft 15 kts 52°
2026-04-27 14:36 60.29384 5.21981 155 ft 0 kts 98°
2026-04-27 14:37 60.29385 5.21993 155 ft 3 kts 83°
2026-04-27 14:37 60.29387 5.22014 155 ft 1 kts 78°
2026-04-27 14:37 60.29383 5.22097 157 ft 8 kts 126°
2026-04-27 14:37 60.29334 5.22140 160 ft 8 kts 169°
2026-04-27 14:38 60.29281 5.22160 161 ft 8 kts 170°
2026-04-27 14:38 60.29193 5.22190 162 ft 16 kts 170°
2026-04-27 14:38 60.29074 5.22230 161 ft 18 kts 170°
2026-04-27 14:38 60.28953 5.22272 161 ft 18 kts 170°
2026-04-27 14:39 60.28857 5.22304 161 ft 10 kts 168°
2026-04-27 14:39 60.28807 5.22382 163 ft 10 kts 84°
2026-04-27 14:39 60.28867 5.22418 166 ft 8 kts 359°
2026-04-27 14:39 60.28891 5.22516 171 ft 8 kts 83°
2026-04-27 14:40 60.28893 5.22549 172 ft 1 kts 84°
2026-04-27 14:40 60.28893 5.22551 172 ft 0 kts 83°